Home   Weather   Male   Past weeks

Flag for Maldives Past Weather in Male, Maldives — Yesterday and Last 2 Weeks

Now
82 °F

Passing clouds.


Feels Like: 89 °F
Forecast: 81 / 86 °F
Wind: 5 mph from East

Location: Male Airport

Current Time: Feb 26, 2017 at 4:07:07 am

Latest Report: Feb 26, 2017 at 3:00 am


Visibility: 6 mi

Pressure: 29.80 "Hg

Humidity: 79%

Dew Point: 75 °F

Location of MaleLocation

Past Weather in Male — Graph

°F

Male Temperature Yesterday

Maximum temperature yesterday: 88 °F (at 1:00 pm)
Minimum temperature yesterday: 81 °F (at 1:00 am)
Average temperature yesterday: 84 °F

High & Low Weather Summary for the Past Weeks

 TemperatureHumidityPressure
High88 °F (Feb 12, 12:00 pm)89% (Feb 19, 6:00 am)29.98 "Hg (Feb 19, 6:00 am)
Low81 °F (Feb 11, 2:00 am)59% (Feb 12, 2:00 pm)29.77 "Hg (Feb 17, 3:00 pm)
Average84 °F74%29.88 "Hg
* Reported Feb 11 2:00 am — Feb 26 2:00 am, Male, Weather by CustomWeather, © 2017

Note: Actual official high and low records may vary slightly from our data, if they occured in-between our weather recording intervals... More about our weather records

Advertising

Male Weather History for the Previous 24 Hours

Scroll right to see more
 ConditionsComfort  
Time TempWeatherWind HumidityBarometerVisibility
2:00 am
Sun, Feb 26
82 °FPassing clouds.8 mph79%29.80 "Hg6 mi
1:00 am82 °FPassing clouds.5 mph79%29.83 "Hg6 mi
12:00 am82 °FPassing clouds.6 mph79%29.86 "Hg6 mi
11:00 pm
Sat, Feb 25
82 °FPassing clouds.7 mph79%29.89 "Hg6 mi
10:00 pm82 °FPassing clouds.8 mph79%29.89 "Hg6 mi
9:00 pm84 °FPassing clouds.7 mph70%29.89 "Hg6 mi
8:00 pm84 °FPassing clouds.6 mph70%29.86 "Hg6 mi
7:00 pm84 °FPassing clouds.6 mph70%29.86 "Hg6 mi
6:00 pm84 °FBroken clouds.7 mph70%29.83 "Hg6 mi
5:00 pm86 °FPassing clouds.9 mph66%29.80 "Hg6 mi
4:00 pm86 °FScattered clouds.9 mph66%29.80 "Hg6 mi
3:00 pm86 °FScattered clouds.12 mph66%29.80 "Hg6 mi
2:00 pm84 °FSprinkles. Scattered clouds.10 mph74%29.83 "Hg6 mi
1:00 pm88 °FBroken clouds.7 mph62%29.86 "Hg6 mi
12:00 pm86 °FBroken clouds.7 mph66%29.89 "Hg6 mi
11:00 am86 °FBroken clouds.6 mph66%29.92 "Hg6 mi
10:00 am86 °FPartly sunny.7 mph66%29.95 "Hg6 mi
9:00 am86 °FPassing clouds.6 mph66%29.95 "Hg6 mi
8:00 am82 °FPartly sunny.3 mph74%29.92 "Hg5 mi
7:00 am81 °FPartly sunny.3 mph79%29.89 "Hg5 mi
6:00 am81 °FPassing clouds.5 mph79%29.86 "Hg5 mi
5:00 am81 °FPassing clouds.3 mph79%29.83 "Hg5 mi
4:00 am81 °FPassing clouds.3 mph79%29.83 "Hg5 mi
Weather by CustomWeather, © 2017

See weather overviewHow to use our weather pages